Weather History for KJAC - April, 2014

Change the Weather History Date:

Thursday, April 3, 2014

  Actual Average Record
Temperature  
Mean Temperature 26 °F -  
Max Temperature 37 °F 44 °F 63 °F (1992)
Min Temperature 14 °F 15 °F -2 °F (1977)
Degree Days  
Heating Degree Days 40    
Moisture  
Dew Point 17 °F    
Average Humidity 80    
Maximum Humidity 100    
Minimum Humidity 36    
Precipitation  
Precipitation 0.00 in - - ()
Sea Level Pressure  
Sea Level Pressure 29.98 in    
Wind  
Wind Speed 3 mph (North)    
Max Wind Speed 8 mph    
Max Gust Speed -    
Visibility 10 miles    
Events      
Averages and records for this station are not official NWS values.
T = Trace of Precipitation, MM = Missing Value Source: NWS Daily Summary

Daily Weather History Graph

Daily Weather History Graph

Search for Another Location

Airport or City:

Trip Planner

Search our weather history database for the weather conditions in past years. The results will help you decide how hot, cold, wet, or windy it might be!

Date:

Astronomy

Apr. 03, 2014 Rise Set
Actual Time 7:00 AM MDT 7:52 PM MDT
Civil Twilight 6:31 AM MDT 8:21 PM MDT
Nautical Twilight 5:57 AM MDT 8:55 PM MDT
Astronomical Twilight 5:21 AM MDT 9:32 PM MDT
Moon 9:26 AM MDT (4/3) No Moon Set
Length of Visible Light 13h 49m
Length of Day
12h 51m
Waxing Crescent, 18% of the Moon is Illuminated
Apr 3
Waxing Crescent
Apr 7
First Quarter
Apr 15
Full
Apr 22
Last Quarter
Apr 29
New

Hourly Weather History & Observations

Time (MDT) Temp. Windchill Dew Point Humidity Pressure Visibility Wind Dir Wind Speed Gust Speed Precip Events Conditions
12:15 AM 21.2 °F 14.9 °F 17.6 °F 86% 29.89 in 10.0 mi ENE 4.6 mph - N/A   Clear
12:35 AM 17.6 °F 12.3 °F 15.8 °F 93% 29.90 in 10.0 mi NNE 3.5 mph - N/A   Clear
12:55 AM 19.4 °F 14.3 °F 17.6 °F 93% 29.90 in 10.0 mi NNE 3.5 mph - N/A   Clear
1:15 AM 21.2 °F - 17.6 °F 86% 29.90 in 10.0 mi Calm Calm - N/A   Clear
1:35 AM 17.6 °F 12.3 °F 17.6 °F 100% 29.90 in - West 3.5 mph - N/A   Unknown
1:55 AM 17.6 °F 10.7 °F 15.8 °F 93% 29.90 in - East 4.6 mph - N/A   Unknown
2:15 AM 17.6 °F - 15.8 °F 93% 29.91 in 10.0 mi Calm Calm - N/A   Mostly Cloudy
2:35 AM 17.6 °F - 15.8 °F 93% 29.91 in - Calm Calm - N/A   Unknown
2:55 AM 19.4 °F - 17.6 °F 93% 29.91 in - Calm Calm - N/A   Unknown
3:15 AM 15.8 °F 8.6 °F 14.0 °F 93% 29.91 in 10.0 mi North 4.6 mph - N/A   Clear
3:35 AM 15.8 °F - 15.8 °F 100% 29.92 in 10.0 mi Calm Calm - N/A   Clear
3:55 AM 15.8 °F - 14.0 °F 93% 29.92 in - Calm Calm - N/A   Unknown
4:15 AM 15.8 °F - 14.0 °F 93% 29.92 in 10.0 mi Calm Calm - N/A   Clear
4:35 AM 17.6 °F 12.3 °F 15.8 °F 93% 29.92 in 10.0 mi North 3.5 mph - N/A   Clear
4:55 AM 15.8 °F 7.2 °F 14.0 °F 93% 29.93 in 10.0 mi North 5.8 mph - N/A   Clear
5:15 AM 14.0 °F 3.9 °F 12.2 °F 93% 29.93 in 10.0 mi North 6.9 mph - N/A   Mostly Cloudy
5:35 AM 15.8 °F 10.2 °F 14.0 °F 93% 29.94 in 10.0 mi NE 3.5 mph - N/A   Overcast
5:55 AM 17.6 °F 12.3 °F 15.8 °F 93% 29.95 in 10.0 mi North 3.5 mph - N/A   Overcast
6:15 AM 17.6 °F - 15.8 °F 93% 29.96 in - Calm Calm - N/A   Overcast
6:35 AM 17.6 °F 10.7 °F 15.8 °F 93% 29.97 in - NNE 4.6 mph - N/A   Mostly Cloudy
6:51 AM 17.6 °F - 15.8 °F 93% 29.97 in 10.0 mi Calm Calm - N/A   Scattered Clouds
6:55 AM 17.6 °F 10.7 °F 15.8 °F 93% 29.97 in - North 4.6 mph - N/A   Unknown
7:54 AM 17.6 °F - 15.8 °F 93% 30.00 in 10.0 mi Calm Calm - N/A   Mostly Cloudy
8:51 AM 19.4 °F - 15.8 °F 86% 30.00 in 10.0 mi Calm Calm - N/A   Scattered Clouds
9:51 AM 24.8 °F 16.9 °F 19.4 °F 80% 30.02 in 10.0 mi NNE 6.9 mph - N/A   Clear
10:58 AM 28.4 °F - 19.4 °F 69% 30.03 in 10.0 mi Calm Calm - N/A   Clear
11:52 AM 30.2 °F - 23.0 °F 75% 30.04 in 10.0 mi Calm Calm - N/A   Partly Cloudy
12:53 PM 32.0 °F 28.7 °F 19.4 °F 60% 30.03 in 10.0 mi ENE 3.5 mph - N/A   Clear
1:57 PM 35.6 °F 31.7 °F 19.4 °F 52% 30.02 in 10.0 mi NNE 4.6 mph - N/A   Clear
2:55 PM 35.6 °F 30.7 °F 15.8 °F 44% 30.02 in 10.0 mi NE 5.8 mph - N/A   Scattered Clouds
3:57 PM 35.6 °F 29.9 °F 19.4 °F 52% 30.01 in 10.0 mi ENE 6.9 mph - N/A   Scattered Clouds
4:51 PM 37.4 °F 32.1 °F 17.6 °F 45% 30.01 in 10.0 mi NE 6.9 mph - N/A   Scattered Clouds
5:58 PM 37.4 °F 32.8 °F 15.8 °F 41% 30.02 in 10.0 mi NW 5.8 mph - N/A   Scattered Clouds
6:51 PM 37.4 °F 33.8 °F 12.2 °F 36% 30.02 in 10.0 mi WNW 4.6 mph - N/A   Scattered Clouds
7:51 PM 33.8 °F 28.6 °F 15.8 °F 48% 30.03 in 10.0 mi WNW 5.8 mph - N/A   Clear
9:55 PM 30.2 °F - 17.6 °F 60% 30.05 in - Calm Calm - N/A   Clear
10:15 PM 28.4 °F 24.6 °F 17.6 °F 64% 30.05 in - WNW 3.5 mph - N/A   Clear
10:35 PM 21.2 °F 13.6 °F 17.6 °F 86% 30.06 in 10.0 mi North 5.8 mph - N/A   Clear
10:55 PM 21.2 °F 11.7 °F 17.6 °F 86% 30.05 in 10.0 mi North 8.1 mph - N/A   Clear
11:15 PM 21.2 °F 12.6 °F 17.6 °F 86% 30.05 in 10.0 mi North 6.9 mph - N/A   Clear
11:35 PM 23.0 °F 15.8 °F 17.6 °F 80% 30.06 in 10.0 mi NNE 5.8 mph - N/A   Clear
11:55 PM 23.0 °F 15.8 °F 17.6 °F 80% 30.06 in 10.0 mi North 5.8 mph - N/A   Clear